[[{"header":{"parameterUnit":"m.s-1","parameterCategory":1,"la1":30.2991,"la2":30.254,"lo1":-89.0895,"lo2":-89.0444,"dy":0.0017,"dx":0.0017,"nx":28,"ny":28,"refTime":"2024-03-23T21:00:00:Z","depth":0,"parameterNumber":2,"parameterNumberName":"U-component_of_WINDS"},"data":[0,0,0,0,0,0,0,0,0,0,0,0,0,0,0,0,0,0,0,0,0,0,0,0,0,0,0,0,0,0,0,0,0,0,0,0,0,0,0,0,0,0,0,0,0,0,0,0,0,0,0,0,0,0,0,0,0,0,-7.3411,-7.3414,0,-7.3661,-7.3663,-7.3666,-7.3771,-7.377,-7.377,-7.3769,-7.402,-7.4026,-7.4033,0,0,0,0,0,0,0,0,0,0,0,0,0,-7.302,-7.3026,-7.3411,-7.3414,-7.3417,-7.366,-7.3663,-7.3667,-7.3771,-7.377,-7.377,-7.3769,-7.4017,-7.4026,-7.4034,0,0,0,0,0,0,0,0,0,0,0,0,0,-7.3221,-7.3028,-7.341,-7.3498,-7.3509,-7.3659,-7.3664,-7.3668,-7.3771,-7.377,-7.377,-7.3769,-7.4014,-7.4025,-7.4035,-7.4115,0,0,-7.4068,-7.4072,0,0,0,0,0,0,0,0,-7.321,-7.3235,-7.3482,-7.3493,-7.3504,-7.3684,-7.3617,-7.3817,-7.3771,-7.3671,-7.3769,-7.3769,-7.3908,-7.3927,-7.3976,-7.4127,-7.4137,-7.4069,-7.4075,-7.408,-7.4083,0,0,0,0,0,0,0,-7.3195,-7.3225,-7.3509,-7.3486,-7.3499,-7.3524,-7.3552,-7.3656,-7.379,-7.368,-7.3688,-7.3717,-7.3914,-7.3965,-7.3982,-7.4141,-7.4068,-7.4078,-7.4084,-7.4089,-7.4372,-7.4373,0,0,0,0,0,0,-7.3168,-7.3213,-7.3501,-7.3517,-7.3353,-7.3532,-7.3563,-7.3627,-7.379,-7.3814,-7.3717,-7.3721,-7.3947,-7.397,-7.3991,-7.4097,-7.408,-7.409,-7.4096,-7.437,-7.4372,-7.4373,0,0,0,0,0,0,-7.3159,-7.3192,-7.3491,-7.3367,-7.3407,-7.3539,-7.361,-7.3632,-7.3684,-7.3818,-7.3842,-7.3745,-7.3948,-7.3976,-7.4084,-7.4107,-7.4094,-7.4104,-7.4369,-7.4371,-7.4372,-7.4306,0,0,0,0,0,0,-7.3147,-7.3189,-7.3221,-7.3367,-7.3414,-7.3581,-7.3612,-7.3638,-7.3702,-7.3709,-7.385,-7.3873,-7.3949,-7.4068,-7.4095,-7.4121,-7.4112,-7.4368,-7.437,-7.4372,-7.4307,-7.4305,-7.4304,0,0,0,0,0,-7.3133,-7.3191,-7.3222,-7.3257,-7.3457,-7.3582,-7.3608,-7.3697,-7.3704,-7.3737,-7.3823,-7.3868,-7.41,-7.4078,-7.4109,-7.4139,-7.4367,-7.4369,-7.4372,-7.4307,-7.4306,-7.4304,0,0,0,0,0,0,-7.3042,-7.3212,-7.3248,-7.3356,-7.3454,-7.3599,-7.3644,-7.3692,-7.3789,-7.3791,-7.3895,-7.3926,-7.4025,-7.4093,-7.4065,-7.4225,-7.4237,-7.4246,-7.4177,-7.4177,-7.4175,-7.4156,-7.4121,0,0,0,0,0,-7.3035,-7.3123,-7.3267,-7.3347,-7.3395,-7.3511,-7.3568,-7.3629,-7.3734,-7.3775,-7.3869,-7.3968,-7.4064,-7.4124,-7.4219,-7.4318,-7.435,-7.4353,-7.4352,-7.435,-7.4356,-7.4414,-7.4418,-7.4381,-7.4381,-7.4381,0,0,-7.302,-7.3124,-7.3173,-7.3332,-7.3415,-7.3503,-7.3545,-7.3636,-7.3703,-7.3788,-7.3897,-7.3969,-7.4086,-7.419,-7.4241,-7.425,-7.4374,-7.4353,-7.4351,-7.4359,-7.4417,-7.4421,-7.4424,-7.4383,-7.4383,-7.4383,0,0,-7.3038,-7.3126,-7.3204,-7.3287,-7.3413,-7.349,-7.3508,-7.3648,-7.37,-7.3811,-7.3877,-7.3957,-7.4118,-7.42,-7.4262,-7.4313,-7.4358,-7.4341,-7.4333,-7.4388,-7.4391,-7.4394,-7.4413,-7.4418,-7.4347,-7.4347,-7.4347,0,-7.3003,-7.3141,-7.3237,-7.3326,-7.3394,-7.3478,-7.3557,-7.3632,-7.3781,-7.3826,-7.3835,-7.4041,-7.4125,-7.425,-7.4263,-7.431,-7.4334,-7.4325,-7.4384,-7.4388,-7.4392,-7.441,-7.4417,-7.4344,-7.4344,-7.4345,-7.4345,0,-7.3092,-7.3186,-7.3234,-7.3379,-7.3452,-7.3535,-7.3642,-7.3705,-7.3759,-7.3834,-7.3946,-7.4051,-7.4169,-7.4204,-7.4256,-7.4336,-7.4338,-7.4364,-7.4377,-7.4391,-7.441,-7.4418,-7.434,-7.4341,-7.4342,-7.4342,0,0,-7.3059,-7.3258,-7.3274,-7.3341,-7.3487,-7.3561,-7.3648,-7.3766,-7.3817,-7.3918,-7.3993,-7.4129,-7.4154,-7.4225,-7.4288,-7.4336,-7.437,-7.4357,-7.4361,-7.4356,-7.4465,-7.4445,-7.4451,-7.4402,-7.4403,-7.4405,-7.4455,0,-7.3097,-7.3259,-7.3348,-7.3471,-7.356,-7.3641,-7.3717,-7.3814,-7.3887,-7.3972,-7.4052,-7.4147,-7.4174,-7.4217,-7.4269,-7.4355,-7.4394,-7.4353,-7.4472,-7.4475,-7.4439,-7.4462,-7.444,-7.4483,-7.4464,-7.4465,-7.4466,0,-7.3164,-7.3265,-7.3398,-7.3535,-7.3576,-7.3642,-7.3758,-7.3838,-7.395,-7.4,-7.4079,-7.4142,-7.4236,-7.4243,-7.4374,-7.4344,-7.4398,-7.4448,-7.4452,-7.4466,-7.447,-7.4476,-7.4498,-7.4504,-7.4479,-7.4478,-7.4477,0,-7.3127,-7.3296,-7.3398,-7.3453,-7.3616,-7.3661,-7.373,-7.3842,-7.3907,-7.4008,-7.4051,-7.416,-7.422,-7.4303,-7.4393,-7.439,-7.4515,-7.4529,-7.4559,-7.4556,-7.4581,-7.4578,-7.4612,-7.4616,-7.4615,-7.4615,-7.4615,0,-7.316,-7.3238,-7.3384,-7.3446,-7.3536,-7.3638,-7.3723,-7.3799,-7.3897,-7.3975,-7.4052,-7.4123,-7.4238,-7.4323,-7.4395,-7.4492,-7.4518,-7.4561,-7.4579,-7.4554,-7.4549,-7.459,-7.459,-7.4617,-7.4617,-7.4616,-7.4616,0,-7.3134,-7.3235,-7.3351,-7.3496,-7.3534,-7.3594,-7.3718,-7.3781,-7.3859,-7.3956,-7.3985,-7.4106,-7.4211,-7.431,-7.4448,-7.4497,-7.4594,-7.4618,-7.4557,-7.4567,-7.4591,-7.4587,-7.4652,-7.4666,-7.466,-7.466,-7.466,0,-7.3148,-7.3211,-7.3363,-7.3422,-7.349,-7.3583,-7.3651,-7.3753,-7.382,-7.3953,-7.4,-7.4111,-7.4205,-7.4368,-7.4468,-7.4575,-7.4601,-7.4617,-7.4617,-7.4591,-7.4602,-7.4597,-7.4603,-7.4614,-7.4614,-7.4613,-7.4613,0,-7.3164,-7.3211,-7.3307,-7.342,-7.35,-7.3594,-7.369,-7.3733,-7.3853,-7.3925,-7.4034,-7.4107,-7.425,-7.4358,-7.4477,-7.4548,-7.46,-7.4612,-7.4625,-7.46,-7.4562,-7.4583,-7.4552,-7.461,-7.4611,-7.4611,-7.4611,-7.4611,-7.3159,-7.3218,-7.3335,-7.3439,-7.3523,-7.3611,-7.3678,-7.3765,-7.3858,-7.3984,-7.4038,-7.4148,-7.4259,-7.4425,-7.4495,-7.4582,-7.4594,-7.4611,-7.4616,-7.4619,-7.4614,-7.4549,-7.4604,-7.4604,-7.4604,-7.4604,-7.4604,0,-7.3179,-7.3258,-7.3353,-7.3486,-7.3568,-7.3613,-7.3722,-7.3787,-7.3883,-7.3983,-7.4074,-7.4199,-7.4306,-7.4415,-7.4527,-7.4575,-7.4602,-7.4601,-7.4599,-7.4614,-7.4597,-7.4575,-7.4578,-7.4578,-7.4578,-7.4578,-7.4578,-7.4578,-7.3198,-7.3302,-7.3363,-7.3508,-7.3587,-7.3697,-7.3755,-7.3837,-7.3917,-7.4054,-7.4143,-7.4214,-7.4318,-7.4438,-7.4538,-7.4567,-7.4604,-7.4597,-7.4632,-7.4614,-7.4615,-7.4616,-7.4596,-7.4604,-7.4604,-7.4643,-7.4643,-7.4643]},{"header":{"parameterUnit":"m.s-1","parameterCategory":1,"la1":30.2991,"la2":30.254,"lo1":-89.0895,"lo2":-89.0444,"dy":0.0017,"dx":0.0017,"nx":28,"ny":28,"refTime":"2024-03-23T21:00:00:Z","depth":0,"parameterNumber":3,"parameterNumberName":"V-component_of_WINDS"},"data":[0,0,0,0,0,0,0,0,0,0,0,0,0,0,0,0,0,0,0,0,0,0,0,0,0,0,0,0,0,0,0,0,0,0,0,0,0,0,0,0,0,0,0,0,0,0,0,0,0,0,0,0,0,0,0,0,0,0,5.6149,5.615,0,5.623,5.6231,5.6232,5.6245,5.6244,5.6244,5.6243,5.632,5.6322,5.6325,0,0,0,0,0,0,0,0,0,0,0,0,0,5.6002,5.6005,5.6149,5.615,5.6151,5.623,5.6231,5.6232,5.6245,5.6244,5.6243,5.6243,5.6319,5.6322,5.6325,0,0,0,0,0,0,0,0,0,0,0,0,0,5.6072,5.6005,5.6149,5.6167,5.617,5.623,5.6231,5.6233,5.6245,5.6244,5.6243,5.6242,5.6318,5.6322,5.6326,5.6371,0,0,5.6338,5.634,0,0,0,0,0,0,0,0,5.6068,5.6078,5.6164,5.6166,5.6169,5.6227,5.6207,5.6279,5.6246,5.6216,5.6243,5.6242,5.6289,5.6295,5.6313,5.6375,5.6378,5.6338,5.6341,5.6342,5.6344,0,0,0,0,0,0,0,5.6064,5.6074,5.6181,5.6165,5.6168,5.617,5.6179,5.6221,5.6257,5.6219,5.622,5.623,5.629,5.6309,5.6315,5.6379,5.6338,5.6342,5.6344,5.6346,5.6486,5.6487,0,0,0,0,0,0,5.6056,5.607,5.6179,5.6184,5.6115,5.6174,5.6184,5.6209,5.6257,5.6264,5.6231,5.623,5.6302,5.631,5.6317,5.6377,5.6342,5.6346,5.6349,5.6485,5.6486,5.6488,0,0,0,0,0,0,5.6053,5.6066,5.6175,5.6127,5.6142,5.6177,5.6206,5.6211,5.623,5.6266,5.6272,5.6243,5.6302,5.6312,5.6359,5.6379,5.6348,5.6352,5.6483,5.6485,5.6487,5.6494,0,0,0,0,0,0,5.6049,5.6064,5.6083,5.6128,5.6144,5.6217,5.6207,5.6214,5.6238,5.6238,5.6279,5.6285,5.6302,5.6353,5.6363,5.6384,5.6355,5.6482,5.6484,5.6486,5.6492,5.6496,5.6499,0,0,0,0,0,5.6043,5.608,5.6084,5.6097,5.6168,5.6218,5.6227,5.6248,5.6239,5.6258,5.6281,5.6284,5.6375,5.6358,5.6369,5.6392,5.648,5.6483,5.6486,5.6491,5.6495,5.6499,0,0,0,0,0,0,5.6033,5.6086,5.6091,5.6143,5.6177,5.622,5.6244,5.6251,5.6286,5.6284,5.6306,5.6315,5.6362,5.6381,5.6361,5.644,5.6427,5.6432,5.6426,5.6431,5.6435,5.643,5.6358,0,0,0,0,0,5.6037,5.6075,5.6118,5.616,5.6177,5.6208,5.623,5.6243,5.6278,5.6291,5.6318,5.635,5.6386,5.6409,5.6444,5.6494,5.6505,5.6516,5.652,5.6522,5.6527,5.6558,5.6564,5.6497,5.6497,5.6497,0,0,5.6046,5.6079,5.6101,5.6159,5.6186,5.6224,5.6219,5.6258,5.6287,5.6296,5.6344,5.6365,5.6402,5.6452,5.6475,5.6469,5.6548,5.6526,5.6528,5.6531,5.6562,5.6568,5.6574,5.6499,5.6499,5.6499,0,0,5.6081,5.6109,5.6149,5.6178,5.6221,5.6241,5.6251,5.6294,5.631,5.6358,5.6367,5.64,5.6461,5.6488,5.651,5.6559,5.6563,5.6569,5.6588,5.6618,5.6624,5.6628,5.6648,5.6655,5.6573,5.6573,5.6573,0,5.6086,5.6145,5.6168,5.6209,5.6235,5.6248,5.6288,5.6314,5.6364,5.6382,5.6375,5.6455,5.648,5.6538,5.6551,5.6567,5.6579,5.6565,5.6621,5.6626,5.6631,5.665,5.6657,5.6574,5.6574,5.6574,5.6574,0,5.615,5.6191,5.6218,5.6271,5.6299,5.6339,5.6367,5.6393,5.6404,5.6425,5.6476,5.6507,5.6551,5.6565,5.6574,5.6625,5.6621,5.6617,5.6605,5.6638,5.6656,5.6664,5.6575,5.6575,5.6575,5.6575,0,0,5.6181,5.6248,5.6258,5.6283,5.6332,5.6364,5.6405,5.645,5.6473,5.6507,5.6543,5.6596,5.6594,5.6619,5.6631,5.6657,5.6698,5.6651,5.6652,5.6661,5.6758,5.6762,5.6771,5.67,5.6702,5.6703,5.6756,0,5.6224,5.6301,5.6324,5.6387,5.6427,5.644,5.6476,5.651,5.6531,5.6566,5.6589,5.6627,5.6621,5.6636,5.6663,5.6687,5.6718,5.6683,5.6734,5.6735,5.6727,5.678,5.6784,5.6833,5.6763,5.6764,5.6765,0,5.6285,5.6325,5.6393,5.6441,5.6458,5.649,5.6535,5.6568,5.6607,5.6621,5.665,5.6661,5.6704,5.6689,5.6749,5.6725,5.6747,5.6762,5.6765,5.6772,5.6754,5.6791,5.6848,5.6857,5.6776,5.6775,5.6775,0,5.6304,5.6374,5.6426,5.6446,5.6502,5.6525,5.6548,5.6586,5.6613,5.6651,5.6669,5.671,5.6733,5.6765,5.6787,5.6773,5.6846,5.6831,5.6859,5.6859,5.6875,5.6875,5.694,5.6886,5.6885,5.6885,5.6885,0,5.6351,5.6393,5.6436,5.6467,5.6515,5.6541,5.6587,5.6611,5.6645,5.6681,5.6693,5.6727,5.6753,5.679,5.6807,5.6856,5.6865,5.6878,5.6882,5.6878,5.6877,5.6894,5.6892,5.6887,5.6887,5.6886,5.6886,0,5.6381,5.6411,5.6469,5.6518,5.6531,5.6565,5.6606,5.6637,5.6659,5.6705,5.6717,5.6752,5.6796,5.6822,5.6876,5.6887,5.6943,5.6944,5.6931,5.6934,5.6961,5.6959,5.7042,5.7055,5.6989,5.699,5.699,0,5.6411,5.6444,5.6498,5.6525,5.655,5.6592,5.6621,5.6647,5.6675,5.6724,5.6749,5.6795,5.6833,5.6903,5.6932,5.6975,5.6979,5.7005,5.6985,5.6981,5.6983,5.6981,5.6986,5.7009,5.7009,5.701,5.701,0,5.6461,5.6475,5.6516,5.6564,5.6599,5.6637,5.6674,5.6695,5.6727,5.6758,5.6806,5.6836,5.6894,5.6939,5.6985,5.7008,5.7015,5.7016,5.7025,5.7023,5.7015,5.7023,5.6943,5.7014,5.7014,5.7014,5.7013,5.7013,5.6493,5.6525,5.6569,5.6616,5.6648,5.6683,5.6717,5.6745,5.6785,5.6837,5.6848,5.6899,5.6938,5.7001,5.7025,5.7064,5.7059,5.7072,5.7075,5.7079,5.7082,5.7007,5.7072,5.7072,5.7072,5.7072,5.7071,0,5.6547,5.6577,5.6619,5.6674,5.6711,5.6716,5.6759,5.6789,5.6834,5.6871,5.691,5.6965,5.701,5.7044,5.709,5.7115,5.7119,5.7126,5.7126,5.7132,5.7082,5.7071,5.7122,5.7122,5.7122,5.7122,5.7122,5.7122,5.6579,5.6634,5.6654,5.6725,5.6754,5.6806,5.683,5.6863,5.6893,5.6956,5.6995,5.7017,5.7053,5.7103,5.7144,5.7153,5.717,5.7177,5.7187,5.714,5.7134,5.7129,5.7119,5.718,5.718,5.7234,5.7234,5.7235]}]]